Flag for Syria Weather past 2 weeks in Aleppo, Syria

Now
80 °F

Passing clouds.


Feels Like: 82 °F
Forecast: 69 / 94 °F
Wind: No wind

Location: Iskenderun

Current Time: Jul 4, 2015 at 6:34:02 AM

Latest Report: Jul 4, 2015 at 3:00 AM


Visibility: 9 mi

Pressure: 29.85 "Hg

Humidity: 63%

Dew point: 66 °F

Location of AleppoLocation

Historic Weather in Aleppo — Graph

°F

Aleppo temperature yesterday

Maximum temperature yesterday: 84 °F (at 4:00 PM)
Minimum temperature yesterday: 76 °F (at 6:00 AM)
Average temperature yesterday: 81 °F

Past Weeks' High & Low Weather Summary

 TemperatureHumidityPressure
High84 °F (Jun 19, 3:00 PM)76% (Jun 22, 9:00 AM)29.96 "Hg (Jun 22, 9:00 AM)
Low72 °F (Jun 26, 9:00 AM)49% (Jun 26, 10:00 AM)29.64 "Hg (Jun 26, 4:00 PM)
Average80 °F65%29.79 "Hg
* Reported Jun 19 9:00 AM — Jul 4 3:00 AM, Aleppo, Weather by CustomWeather, © 2015

Note: Actual official high and low records may vary slightly from our data, if they occured in-between our weather recording intervals... More about our weather records

Advertising

Aleppo weather history for previous 24 hours

 ConditionsComfort  
Time TempWeatherWind HumidityBarometerVisibility
3:00 AM
Sat, Jul 4
80 °FPassing clouds.No wind63%29.85 "Hg9 mi
12:00 AM80 °FPassing clouds.7 mph71%29.87 "Hg9 mi
9:00 PM
Fri, Jul 3
80 °FPassing clouds.2 mph67%29.86 "Hg9 mi
8:00 PM80 °FPassing clouds.2 mph67%29.85 "Hg9 mi
7:00 PM81 °FPassing clouds.8 mph65%29.85 "Hg9 mi
6:00 PM83 °FPassing clouds.7 mph63%29.84 "Hg9 mi
5:00 PM83 °FPassing clouds.9 mph60%29.84 "Hg9 mi
4:00 PM84 °FPassing clouds.9 mph59%29.83 "Hg9 mi
3:00 PM84 °FPassing clouds.6 mph58%29.83 "Hg9 mi
2:00 PM83 °FPassing clouds.6 mph59%29.84 "Hg9 mi
1:00 PM83 °FPassing clouds.7 mph58%29.85 "Hg9 mi
12:00 PM83 °FPassing clouds.5 mph60%29.86 "Hg9 mi
11:00 AM83 °FPassing clouds.5 mph61%29.88 "Hg9 mi
10:00 AM82 °FPassing clouds.5 mph61%29.88 "Hg9 mi
9:00 AM81 °FPassing clouds.3 mph62%29.87 "Hg9 mi
6:00 AM76 °FSunny.1 mph66%29.85 "Hg9 mi
Weather by CustomWeather, © 2015

See weather overviewHow to use our weather pages